Overview Statistics Trail Chart Weather Telemetry Raw packets
 

This is the latest recevied weather packets stored in our database for station/object EA4URC-13. If no packets are shown the sender has not sent any weather packets the latest 10 day(s).

<< 1 2 3 4 5 6 >>
Time Temp. Humidity Pressure Rain* Wind** Luminosity Snow
1788574101 22.78° C 30% 1018.6 hPa - - - -
1788573201 22.78° C 31% 1018.7 hPa - - - -
1788572301 22.22° C 32% 1018.9 hPa - - - -
1788571401 22.22° C 32% 1018.7 hPa - - - -
1788570501 22.22° C 32% 1018.8 hPa - - - -
1788569601 22.78° C 31% 1018.7 hPa - - - -
1788568971 22.78° C 31% 1018.7 hPa - - - -
1788568701 22.78° C 31% 1018.7 hPa - - - -
1788567801 23.33° C 29% 1018.4 hPa - - - -
1788566901 23.89° C 28% 1018.2 hPa - - - -
1788566001 23.89° C 29% 1018.4 hPa - - - -
1788565101 23.89° C 29% 1018.6 hPa - - - -
1788564201 23.33° C 30% 1018.7 hPa - - - -
1788563301 23.33° C 31% 1018.6 hPa - - - -
1788562401 23.33° C 31% 1018.6 hPa - - - -
1788561501 23.89° C 31% 1018.4 hPa - - - -
1788560601 23.89° C 31% 1018.2 hPa - - - -
1788559701 23.89° C 32% 1018.5 hPa - - - -
1788558801 23.89° C 33% 1018.5 hPa - - - -
1788557901 23.89° C 33% 1018.3 hPa - - - -
1788557001 23.89° C 33% 1018.1 hPa - - - -
1788556101 24.44° C 33% 1018.2 hPa - - - -
1788555460 25° C 32% 1018 hPa - - - -
1788555201 25° C 32% 1018 hPa - - - -
1788554301 24.44° C 33% 1018 hPa - - - -

* Rain since midnight (hover to see other rain measurements)
** Current wind speed in m/s (hover to see current wind gust speed)